#timestamp,LO_Frequency,Hit,StdDev 
1586707215.6,286046998.5,N
1586707235.4,286046998.7,N
1586707255.2,286046999.9,N
1586707275.1,286047001.1,N
1586707276.0,286047001.1,N
1586707295.8,286047000.3,N
1586707315.7,286047000.5,N
1586707335.5,286047001.0,N
1586707355.3,286047001.2,N
1586707375.2,286046998.2,N
1586707395.0,286047000.7,N
1586707395.9,286047000.7,N
1586707415.8,286047000.3,N
1586707435.6,286046999.8,N
1586707455.4,286046999.7,N
1586707475.3,286047001.9,N
1586707495.1,286047001.7,N
1586707515.8,286047001.6,N
1586707535.7,286047001.0,N
1586707555.5,286047000.3,N
1586707575.4,286047000.6,N
1586707595.2,286047002.2,N
1586707615.0,286047000.1,N
1586707615.9,286047000.1,N
1586707635.8,286047002.5,N
1586707655.6,286047002.0,N
1586707675.5,286047002.3,N
1586707695.3,286047002.2,N
1586707715.1,286047000.1,N
1586707735.9,286047002.3,N
1586707755.7,286047002.8,N
1586707775.6,286047000.1,N
1586707795.4,286047000.6,N
1586707815.2,286046999.8,N
1586707865.1,286046997.7,E
1586707875.0,286047011.9,N
1586707875.9,286046998.8,P
1586707895.8,286047000.2,N
1586707915.6,286047002.8,N
1586707935.4,286047002.6,N
1586707955.3,286047001.1,N
1586707975.1,286046998.8,N
1586707995.9,286046998.1,N
1586708015.7,286046999.4,N
1586708035.5,286046998.9,N
1586708055.4,286046996.5,N
1586708075.2,286046999.2,N
1586708095.1,286046997.0,N
1586708096.0,286046997.0,N
1586708115.8,286046997.0,N
1586708135.6,286046998.8,N
1586708155.5,286046997.4,N
1586708175.3,286046993.9,N
1586708195.2,286046994.5,N
1586708215.9,286046993.5,N
1586708235.7,286046993.5,N
1586708255.6,286046994.1,N
1586708275.4,286046993.9,N
1586708295.2,286046994.0,N
1586708315.1,286046996.1,N
1586708316.0,286046996.1,N
1586708335.8,286046995.9,N
1586708355.7,286046993.7,N
1586708375.5,286046996.4,N
1586708395.3,286046993.6,N
1586708415.2,286046996.3,N
1586708435.0,286046993.7,N
1586708435.9,286046993.7,N
1586708455.8,286046993.9,N
1586708475.6,286046994.0,N
1586708495.4,286046995.7,N
1586708515.3,286046995.7,N
1586708535.1,286046995.5,N
1586708555.9,286046995.6,N
1586708575.7,286046996.4,N
1586708595.5,286046993.5,Y
1586708615.4,286046999.0,P
1586708635.2,286046998.9,N
1586708655.0,286046996.7,N
1586708656.0,286046996.7,N
1586708675.8,286046998.0,N
1586708695.6,286046997.4,N
1586708715.5,286046999.2,N
1586708735.3,286046996.7,N
1586708755.1,286046997.5,N
1586708775.9,286046995.7,Y
1586708795.7,286046999.5,P
1586708815.6,286046996.9,P
1586708835.4,286046999.0,N
1586708855.2,286046996.6,Y
1586708875.1,286046997.1,P
1586708876.0,286046997.1,P
1586708895.8,286046998.2,P
1586708915.6,286047000.7,N
1586708935.5,286047000.5,N
1586708955.3,286047002.6,N
1586708975.2,286046999.7,N
1586708995.9,286047000.3,N
1586709015.7,286047001.7,N
1586709035.6,286047002.8,N
1586709055.4,286047000.3,N
1586709075.3,286047001.2,N
1586709095.1,286046998.3,N
1586709096.0,286046998.3,N
1586709115.8,286047000.3,N
1586709135.7,286047000.3,N
1586709155.5,286047000.6,N
1586709175.3,286047000.6,N
1586709195.2,286047001.2,N
1586709215.0,286046998.1,N
1586709215.9,286046998.1,N
1586709235.8,286047000.9,N
1586709255.6,286046998.1,N
1586709275.4,286047000.0,N
1586709295.3,286047002.3,N
1586709315.1,286047002.6,N
1586709335.9,286047002.5,N
1586709355.7,286047002.5,N
1586709375.5,286047001.4,N
1586709395.4,286047003.9,N
1586709415.2,286047002.8,N
1586709435.1,286047004.0,N
1586709436.0,286047004.0,N
1586709455.8,286047002.2,N
1586709475.6,286047002.3,N
1586709495.5,286047002.0,N
1586709515.3,286047002.0,N
1586709535.1,286047004.3,N
1586709555.9,286047001.8,N
1586709575.7,286047002.7,N
1586709595.6,286047002.8,N
1586709615.4,286047001.9,N
1586709635.2,286047002.3,N
1586709655.1,286047002.1,N
1586709656.0,286047002.1,N
1586709675.8,286047002.6,N
1586709695.7,286047002.3,N
1586709715.5,286047004.3,N
1586709735.3,286047002.6,N
1586709755.2,286047001.5,N
1586709775.0,286047004.2,N
1586709775.9,286047004.2,Y
1586709795.8,286047002.3,P
1586709815.6,286047001.9,P
1586709835.4,286047001.5,P
1586709855.3,286047001.7,Y
1586709875.1,286047001.2,P
1586709895.9,286047000.2,N
1586709915.7,286047000.8,N
1586709935.5,286046999.8,N
1586709955.4,286047002.8,Y
1586709975.2,286047000.3,P
1586709995.0,286047001.0,P
1586709996.0,286047001.0,P
1586710015.8,286047000.9,Y
1586710035.6,286046998.5,P
1586710055.5,286047000.9,N
1586710075.3,286046998.5,N
1586710095.1,286046998.7,N
1586710115.9,286046999.2,N
1586710135.7,286046998.5,N
1586710155.6,286046997.1,N
1586710175.4,286046998.3,N
1586710195.2,286047000.6,N
1586710215.1,286046999.9,N
1586710216.0,286046999.9,N
1586710235.8,286047000.6,N
1586710255.7,286047002.8,N
1586710275.5,286047000.4,N
1586710295.3,286046998.2,N
1586710315.2,286047002.8,N
1586710335.9,286047004.4,N
1586710355.7,286047000.8,N
1586710375.6,286047002.3,N
1586710395.4,286047002.4,N
1586710415.3,286046999.8,N
1586710435.1,286047002.7,N
1586710436.0,286047002.7,N
1586710455.8,286047002.3,N
1586710475.7,286047002.6,N
1586710495.5,286046999.8,N
1586710515.3,286047002.2,N
1586710535.2,286047004.4,N
1586710555.0,286047003.5,N
1586710555.9,286047003.5,N
1586710575.8,286047001.4,N
1586710595.6,286047004.2,N
1586710615.4,286047001.9,N
1586710635.3,286047001.8,N
1586710655.1,286047001.4,N
1586710675.9,286047004.3,N
1586710695.7,286047004.1,N
1586710715.5,286047004.2,N
1586710735.4,286047003.0,N
1586710755.2,286047003.0,N
1586710775.0,286047001.4,N
1586710775.9,286047001.4,N
1586710795.8,286047003.8,N
